Погода в Нижней Калиновке

Россия / Орловская область     53°03′17″N   36°13′32″E
темп.,
°C
ветер,
м/с
пор.,
м/с
влажн.,
%
обл.,
%
осадки,
мм/ч
давл.,
гПа
погр.,
м
8 декабря, ср
ср800:00+1в12100100 0.9 101348
03:00+1ссв4699100 4.8 1013185
06:000ссв4799100 2.0 1014234
09:000ссв5898100 2.1 1015268
12:00−1ссв5997100 0.1 1015277
15:00−1ссв61097100 0.1 1015322
18:00−1св61097100 0.0 1016333
21:00−2св51098100 0.0 1016318
9 декабря, чт
чт900:00−2ссв5997100 0.0 1017290
03:00−3ссв5997100 0.1 1017278
06:00−3св51096100 0.1 1018296
09:00−3св51095100 0.1 1019299
12:00−3св5894100 0.0 1021313
15:00−2св5994100 0.0 1021338
18:00−2св51093100 0.0 1023363
21:00−3св51093100 0.0 1024362
10 декабря, пт
пт1000:00−3св51094100 0.0 1025340
03:00−3всв599396 0.0 1026312
06:00−4всв599349 0.0 1026301
09:00−4в4109446 0.0 1027320
12:00−3в599234 0.0 1027360
15:00−3в48917 0.0 1028340
18:00−4в511915 0.0 1028322
21:00−4вюв5129033 0.0 1028342
11 декабря, сб
сб1100:00−4вюв51291100 0.0 1029341
03:00−4вюв5129192 0.0 1029361
06:00−4вюв51291100 0.0 1029368
09:00−4вюв61390100 0.0 1029384
12:00−3вюв61390100 0.0 1030440
15:00−2вюв61388100 0.0 1029393
18:00−2юв61487100 0.0 1030382
21:00−1юв61485100 0.0 1031408
12 декабря, вс
вс1200:00−1юв61383100 0.0 1031370
03:00−1юв51185100 0.0 1032319
06:00−1юв51185100 0.0 1033299
09:00−1юв51287100 0.0 1034343
12:00−1юв51286100 0.0 1034363
15:00−1юв61281100 0.0 1033351
18:00−2юв61476100 0.0 1033363
21:00−2юв61571100 0.0 1032405